Powrót do katalogu

SL-12 R/B(2)

AktywnyHEO
NORAD 25927·ROCKET BODY·🇷🇺 Russia

Wystrzelony Sep 26, 1999 z Baikonur Cosmodrome

Loading…

Następne Przeloty (najbliższe 24 godziny)

TLE

ŚwieżeSource: Space-Track

Epoka: Sep 12, 2026, 22:24 UTC

1 25927U 99053D   26255.93373271 -.00000184  00000-0  00000-0 0  9990
2 25927  17.5499 304.1218 5334620 300.0995  16.7515  1.89349889186087

Śledź SL-12 R/B(2) w czasie rzeczywistym z AllMySat

Download on the App Store